Flag for U.S.A. Weather past 2 weeks in Kilgore, Texas, U.S.A.

Now
59 °F

Light rain. Cloudy.


Feels Like: 56 °F
Forecast: 40 / 62 °F
Wind: 17 mph from Northwest

Location: Gregg County Airport

Current Time: Feb 1, 2015 at 12:14:56 PM

Latest Report: Feb 1, 2015 at 11:53 AM


Visibility: 10 mi

Pressure: 29.88 "Hg

Humidity: 81%

Dew point: 53 °F

Location of KilgoreLocation

Historic Weather in Kilgore — Graph

°F

Kilgore temperature yesterday

Maximum temperature yesterday: 58 °F (at 3:53 PM)
Minimum temperature yesterday: 43 °F (at 4:53 AM)
Average temperature yesterday: 51 °F

Past Weeks' High & Low Weather Summary

 TemperatureHumidityPressure
High78 °F (Jan 28, 2:53 PM)97% (Jan 20, 10:00 AM)30.51 "Hg (Jan 20, 10:00 AM)
Low31 °F (Jan 24, 6:53 AM)14% (Jan 18, 2:53 PM)29.85 "Hg (Feb 1, 6:53 AM)
Average52 °F60%30.13 "Hg
* Reported Jan 17 10:53 AM — Feb 1 10:53 AM, Kilgore, Weather by CustomWeather, © 2014

Note: Actual official high and low records may vary slightly from our data, if they occured in-between our weather recording intervals... More about our weather records

Advertising

Kilgore weather history for previous 24 hours

 ConditionsComfort  
Time TempWeatherWind HumidityBarometerVisibility
10:53 AM
Feb 1
65 °FLight rain. Mostly cloudy.8 mph85%29.85 "Hg9 mi
9:53 AM64 °FMostly cloudy.12 mph84%29.85 "Hg10 mi
8:53 AM61 °FLow clouds.10 mph90%29.86 "Hg8 mi
7:53 AM61 °FLow clouds.14 mph90%29.86 "Hg8 mi
6:53 AM60 °FRain. Low clouds.15 mph90%29.85 "Hg7 mi
5:53 AM58 °FFog.12 mph93%29.86 "Hg6 mi
4:53 AM58 °FLight rain. Fog.14 mph90%29.87 "Hg6 mi
3:53 AM59 °FLight rain. Overcast.14 mph84%29.88 "Hg10 mi
2:53 AM59 °FOvercast.15 mph81%29.88 "Hg10 mi
1:53 AM58 °FOvercast.13 mph81%29.91 "Hg10 mi
12:53 AM55 °FOvercast.8 mph80%29.93 "Hg10 mi
11:53 PM
Jan 31
56 °FLight rain. Overcast.7 mph75%29.95 "Hg10 mi
10:53 PM56 °FOvercast.15 mph72%29.96 "Hg10 mi
9:53 PM56 °FOvercast.14 mph70%29.99 "Hg10 mi
8:53 PM56 °FOvercast.14 mph65%30.02 "Hg10 mi
8:01 PM57 °FPartly cloudy.12 mph58%30.03 "Hg10 mi
6:53 PM56 °FMostly cloudy.5 mph53%30.05 "Hg10 mi
5:53 PM56 °FOvercast.9 mph49%30.06 "Hg10 mi
4:53 PM57 °FPartly sunny.7 mph46%30.06 "Hg10 mi
3:53 PM58 °FScattered clouds.8 mph43%30.07 "Hg10 mi
2:53 PM57 °FSunny.9 mph42%30.08 "Hg10 mi
1:53 PM57 °FSunny.8 mph41%30.12 "Hg10 mi
12:53 PM56 °FSunny.10 mph42%30.16 "Hg10 mi
Weather by CustomWeather, © 2014

See weather overviewHow to use our weather pages